Flag for Canada Weather past 2 weeks in Kenora, Ontario, Canada

Now
64 °F

Scattered clouds.


Feels Like: 64 °F
Forecast: 66 / 82 °F
Wind: 9 mph from South

Location: Kenora

Current Time: Sep 3, 2015 at 7:54:51 AM

Latest Report: Sep 3, 2015 at 7:00 AM


Visibility: 12 mi

Pressure: 29.91 "Hg

Humidity: 94%

Dew point: 63 °F

Location of KenoraLocation

Historic Weather in Kenora — Graph

°F

Kenora temperature yesterday

Maximum temperature yesterday: 82 °F (at 3:00 PM)
Minimum temperature yesterday: 63 °F (at 4:00 AM)
Average temperature yesterday: 73 °F

Past Weeks' High & Low Weather Summary

 TemperatureHumidityPressure
High82 °F (Sep 2, 3:00 PM)100% (Aug 22, 12:03 PM)30.22 "Hg (Aug 22, 12:03 PM)
Low45 °F (Aug 23, 10:00 PM)37% (Sep 1, 4:00 PM)29.41 "Hg (Aug 22, 8:00 PM)
Average63 °F79%29.85 "Hg
* Reported Aug 19 6:00 AM — Sep 3 6:00 AM, Kenora, Weather by CustomWeather, © 2015

Note: Actual official high and low records may vary slightly from our data, if they occured in-between our weather recording intervals... More about our weather records

Advertising

Kenora weather history for previous 24 hours

 ConditionsComfort  
Time TempWeatherWind HumidityBarometerVisibility
6:00 AM
Thu, Sep 3
64 °FPassing clouds.7 mph100%29.90 "Hg15 mi
5:00 AM64 °FClear.10 mph100%29.89 "Hg15 mi
4:00 AM66 °FClear.9 mph94%29.89 "Hg15 mi
3:00 AM66 °FClear.10 mph94%29.90 "Hg15 mi
2:00 AM68 °FClear.9 mph88%29.89 "Hg15 mi
1:00 AM70 °FClear.9 mph83%29.89 "Hg15 mi
12:00 AM72 °FClear.9 mph78%N/A12 mi
11:00 PM
Wed, Sep 2
72 °FClear.8 mph83%29.90 "Hg10 mi
10:00 PM73 °FPassing clouds.9 mph78%29.90 "Hg10 mi
9:00 PM75 °FPassing clouds.9 mph78%29.88 "Hg10 mi
8:00 PM77 °FPassing clouds.6 mph74%29.87 "Hg10 mi
7:00 PM81 °FScattered clouds.7 mph66%29.87 "Hg15 mi
6:00 PM82 °FScattered clouds.12 mph62%29.86 "Hg15 mi
5:00 PM82 °FBroken clouds.12 mph62%29.87 "Hg15 mi
4:00 PM82 °FBroken clouds.14 mph62%29.87 "Hg15 mi
3:00 PM82 °FBroken clouds.13 mph66%29.87 "Hg15 mi
2:00 PM81 °FPassing clouds.14 mph70%29.88 "Hg15 mi
1:00 PM81 °FBroken clouds.13 mph66%29.88 "Hg15 mi
12:00 PM77 °FBroken clouds.9 mph74%29.89 "Hg15 mi
11:00 AM75 °FScattered clouds.12 mph74%29.89 "Hg15 mi
10:00 AM73 °FPassing clouds.8 mph74%29.89 "Hg15 mi
9:00 AM70 °FPassing clouds.8 mph69%29.90 "Hg15 mi
8:00 AM64 °FSunny.7 mph73%29.91 "Hg15 mi
7:00 AM63 °FSunny.5 mph73%29.90 "Hg15 mi
Weather by CustomWeather, © 2015

See weather overviewHow to use our weather pages